Regional Weather Roundup
Issued by NWS

Home | Current Version | Previous Version | Text Only | Print | Product List | Glossary Off
Versions: 1 2 3 4 5 6 7 8 9 10 11 12 13 14 15 16 17 18 19 20 21 22 23 24 25 26 27 28 29 30 31 32 33 34 35 36 37 38 39 40 41 42 43 44 45 46 47 48 49 50

000
ASUS43 KOAX 020110
RWRNE

WEATHER ROUNDUP FOR NEBRASKA
NATIONAL WEATHER SERVICE OMAHA NE
800 PM CDT MON SEP 01 2014

NOTES: SATELLITE DATA IS BEING USED TO AUGMENT CLOUD COVER ABOVE
       12000 FEET.
       "FAIR" INDICATES FEW OR NO CLOUDS BELOW 12,000 FEET WITH NO
       SIGNIFICANT WEATHER AND/OR OBSTRUCTIONS TO VISIBILITY.

  * THESE STATIONS DO NOT REPORT WEATHER SUCH AS RAIN...SNOW OR FOG.

NEZ001>004-019>022-054>056-020200-
NEBRASKA PANHANDLE

CITY           SKY/WX    TMP DP  RH WIND       PRES   REMARKS
SCOTTSBLUFF    LGT RAIN  68  48  48 N10       29.99R
ALLIANCE       LGT RAIN  62  48  60 N14       30.00R
CHADRON        LGT RAIN  62  51  67 NE8       29.95F
KIMBALL        PTCLDY    70  38  30 NW3       29.97R
SIDNEY         PTCLDY    70  43  37 N16       29.98R
$$

NEZ057>060-069>072-079>082-020200-
SOUTHWEST NEBRASKA

CITY           SKY/WX    TMP DP  RH WIND       PRES   REMARKS
NORTH PLATTE   PTCLDY    66  56  70 E6        29.89F
IMPERIAL       CLEAR     73  52  47 SE7       29.91S
LEXINGTON      CLEAR     66  58  74 S5        29.92S
MCCOOK         CLEAR     71  55  56 E8        29.91F
OGALLALA       PTCLDY    69  54  58 S5        29.89S
$$

NEZ005>010-023>029-035>040-094-020200-
NORTH CENTRAL NEBRASKA

CITY           SKY/WX    TMP DP  RH WIND       PRES   REMARKS
VALENTINE      CLOUDY    59  55  87 NW8       29.95R
AINSWORTH      CLOUDY    58  54  87 NW3       29.97R
BROKEN BOW     PTCLDY    69  56  62 S6        29.87F
O`NEILL        LGT RAIN  70  60  71 NE5       29.87S
ORD            CLEAR     69  58  67 S7        29.86F
THEDFORD       MOCLDY    59  56  89 N6        29.95R
$$

NEZ041-046>049-061>064-073>077-083>087-020200-
SOUTH CENTRAL NEBRASKA

CITY           SKY/WX    TMP DP  RH WIND       PRES   REMARKS
GRAND ISLAND   PTCLDY    69  59  70 S6        29.89F
AURORA         PTCLDY    68  59  73 S3        29.90S
HASTINGS       PTCLDY    70  59  68 CALM      29.91S
HEBRON         MOCLDY    70  61  75 CALM      29.89S
HOLDREGE       CLEAR     68  59  73 CALM      29.92S
KEARNEY *      PTCLDY    64  59  82 S7        29.91F
YORK           PTCLDY    68 N/A N/A S5        29.90S
$$

NEZ011>018-030>034-042>045-020200-
NORTHEAST NEBRASKA

CITY           SKY/WX    TMP DP  RH WIND       PRES   REMARKS
NORFOLK        CLEAR     69  61  75 S6        29.86S
ALBION         CLEAR     68  60  76 CALM      29.87F
BLAIR          CLOUDY    72  62  69 CALM      29.88S
FREMONT        MOCLDY    72  63  73 CALM      29.87R
TEKAMAH        MOCLDY    71  67  87 CALM      29.86R
WAYNE          CLEAR     69  65  86 CALM      29.87R
$$

NEZ050>053-065>068-078-088>093-020200-
SOUTHEAST NEBRASKA

CITY           SKY/WX    TMP DP  RH WIND       PRES   REMARKS
LINCOLN        MOCLDY    72  65  78 W5        29.89R
OMAHA EPPLEY   CLOUDY    74  61  63 CALM      29.86S
BEATRICE       CLOUDY    72  63  73 CALM      29.87F
FALLS CITY     MOCLDY    73  66  78 N5        29.86F
NEBRASKA CITY  CLOUDY    71  61  70 SE6       29.85F
PLATTSMOUTH    CLOUDY    71  64  77 CALM      29.86F
$$

NEZ044-045-051>053-067-020200-
OMAHA AREA

CITY           SKY/WX    TMP DP  RH WIND       PRES   REMARKS
OMAHA EPPLEY   CLOUDY    74  61  63 CALM      29.86S
BLAIR          CLOUDY    72  62  69 CALM      29.88S
FREMONT        MOCLDY    72  63  73 CALM      29.87R
MILLARD        CLOUDY    72  63  73 CALM      29.86R
OFFUTT AFB     CLOUDY    71  69  96 NW2       29.87R
PLATTSMOUTH    CLOUDY    71  64  77 CALM      29.86F
WAHOO          FAIR      71  65  81 CALM      29.87S
$$



USA.gov is the U.S. government's official web portal to all federal, state and local government web resources and services.